Вернуться в каталог

INTELSAT 33E DEB

АктивенGEO
NORAD 61994·DEBRIS· XX

Запущен Aug 24, 2016 с Guiana Space Centre

Loading…

TLE

СвежийSource: Space-Track

Эпоха: Sep 14, 2026, 10:53 UTC

1 61994U 16053L   26257.45354983 -.00000280  00000-0  00000-0 0  9998
2 61994   1.8104  83.8242 0024748 214.7400 145.8525  1.00513011  6991

Отслеживайте INTELSAT 33E DEB в реальном времени с AllMySat

Download on the App Store